Regional Weather Roundup
Issued by NWS

Home | Current Version | Previous Version | Graphics & Text | Print | Product List | Glossary On
Versions: 1 2 3 4 5 6 7 8 9 10 11 12 13 14 15 16 17 18 19 20 21 22 23 24 25 26 27 28 29 30 31 32 33 34 35 36 37 38 39 40 41 42 43 44 45 46 47 48 49 50
000
ASUS44 KMEG 191810
RWRTN
TENNESSEE HOURLY STATE WEATHER ROUNDUP
NATIONAL WEATHER SERVICE MEMPHIS TN
100 PM CDT FRI SEP 19 2014

TNZ002-004-019-021-049-052-054-088>092-191900-
WEST TENNESSEE

CITY           SKY/WX    TMP DP  RH WIND       PRES   REMARKS
MEMPHIS INTL   MOSUNNY   81  65  58 VRB3      30.04F
NWS MEMPHIS      N/A     81 N/A N/A MISG        N/A
JACKSON        CLOUDY    81  64  56 VRB3      30.05F
DYERSBURG      SUNNY     79  57  47 NE7       30.05F
UNION CITY     SUNNY     79  61  53 NE8       30.04F
PARIS          SUNNY     79  61  53 E8        30.06F
HUNTINGDON     SUNNY     79  60  51 SE5       30.05F
LEXINGTON      SUNNY     81  64  57 S5        30.04F
SAVANNAH       PTSUNNY   82  68  61 S3        30.05S
$$

TNZ008-025-027-028-033-062-065-066-191900-
NORTH MIDDLE TENNESSEE

CITY           SKY/WX    TMP DP  RH WIND       PRES   REMARKS
NASHVILLE      MOSUNNY   82  60  47 SE6       30.06F
DICKSON        SUNNY     81  63  54 E7        30.07F
PORTLAND       MOSUNNY   81  61  50 S5        30.07F
CLARKSVILLE    SUNNY     80  59  48 SE6       30.06F
LEBANON        SUNNY     81  59  47 E6        30.06F
SMYRNA         MOSUNNY   85  61  44 CALM      30.06F
MURFREESBORO   MOSUNNY   81  61  50 CALM      30.05F
COOKEVILLE     PTSUNNY   82  63  51 VRB5      30.08F
LIVINGSTON     SUNNY     77  59  53 VRB5      30.10
GALLATIN       SUNNY     82  62  50 SE6       30.08F
CROSSVILLE     CLOUDY    77  58  51 SE7       30.13S
$$

TNZ061-075-076-078-094-096-097-191900-
SOUTH MIDDLE TENNESSEE

CITY           SKY/WX    TMP DP  RH WIND       PRES   REMARKS
LEWISBURG      PTSUNNY   82  65  56 E5        30.05F
FAYETTEVILLE   MOSUNNY   79  61  53 CALM      30.06F
TULLAHOMA      MOSUNNY   82  61  47 VRB7      30.08F
WINCHESTER     MOSUNNY   82  63  51 VRB5      30.07F
MCMINNVILLE    MOSUNNY   82  66  57 VRB6      30.08F
COLUMBIA       PTSUNNY   84  66  54 SE8       30.04F
SHELBYVILLE    PTSUNNY   84  64  51 S6        30.07F
$$

TNZ017-018-042-046-047-191900-
NORTHEAST TENNESSEE

CITY           SKY/WX    TMP DP  RH WIND       PRES   REMARKS
TRI CITIES     MOSUNNY   81  55  40 VRB6      30.13F
ELIZABETHTON   MOCLDY    75  57  53 E9        30.14S
$$

TNZ012-013-036-069-073-074-191900-
CENTRAL EAST TENNESSEE

CITY           SKY/WX    TMP DP  RH WIND       PRES   REMARKS
KNOXVILLE      MOSUNNY   80  59  48 CALM      30.08F
OAK RIDGE      SUNNY     81  60  48 VRB5      30.11F
GATLINBURG     CLEAR     81  59  47 VRB5      30.08F
MORRISTOWN     CLEAR     82  61  47 CALM      30.12S
$$

TNZ083-085-099-191900-
SOUTHEAST TENNESSEE

CITY           SKY/WX    TMP DP  RH WIND       PRES   REMARKS
CHATTANOOGA    MOSUNNY   81  63  54 SE7       30.08F
$$

SKY/WX REPORTED AS FAIR MEANS FEW OR NO CLOUDS BELOW
12 THOUSAND FEET.




USA.gov is the U.S. government's official web portal to all federal, state and local government web resources and services.